Location: Freiburg+im+Breisgau
(48.0359°N, 7.8195°E)
Time: 09:58:36
(UTC+02:00)

ISS - Pass Details

Date: 11 February 2018
Orbit: 402 x 406 km, 51.6° (Epoch: 18 June)

Event Time Altitude Azimuth Distance (km) Brightness Sun altitude
Rises 19:16:12 0° 287° (WNW) 2,321 1.4 -15.8°
Reaches altitude 10° 19:18:35 10° 271° (W) 1,458 0.3 -16.2°
Maximum altitude 19:21:08 21° 220° (SW) 963 -1.4 -16.6°
Drops below altitude 10° 19:23:41 10° 168° (SSE) 1,453 -1.1 -17.0°
Enters shadow 19:24:05 - 164° (SSE) 1,588 -1.0 -17.1°
